This is the latest recevied weather packets stored in our database for station/object N5MDT. If no packets are shown the sender has not sent any weather packets the latest 1 day(s).
| Time | Temp. | Humidity | Pressure | Rain* | Wind** | Luminosity | Snow |
|---|---|---|---|---|---|---|---|
| 1836274459 | 28.33° C | 71% | 1016.5 hPa | 0 mm | 0 m/s | - | - |
| 1836274309 | 28.33° C | 72% | 1016.6 hPa | 0 mm | 0 m/s | - | - |
| 1778042904 | 26.11° C | 80% | 1010.2 hPa | 0 mm | 0.45 m/s, 223° | - | - |
| 1778042304 | 26.11° C | 80% | 1010 hPa | 0 mm | 0.89 m/s, 171° | - | - |
| 1778041714 | 26.11° C | 80% | 1009.9 hPa | 0 mm | 1.34 m/s, 94° | - | - |
| 1778041114 | 26.11° C | 79% | 1009.5 hPa | 0 mm | 0.89 m/s, 123° | - | - |
| 1778040514 | 26.11° C | 79% | 1009.5 hPa | 0 mm | 1.34 m/s, 155° | - | - |
| 1778039915 | 26.67° C | 79% | 1009.7 hPa | 0 mm | 2.24 m/s, 138° | - | - |
| 1778039314 | 26.67° C | 78% | 1009.7 hPa | 0 mm | 1.34 m/s, 98° | - | - |
| 1778038714 | 26.67° C | 78% | 1009.5 hPa | 0 mm | 1.79 m/s, 120° | - | - |
| 1778038114 | 26.67° C | 77% | 1009.5 hPa | 0 mm | 1.34 m/s, 119° | - | - |
| 1778037514 | 26.67° C | 77% | 1009.5 hPa | 0 mm | 1.34 m/s, 121° | - | - |
| 1778036914 | 27.22° C | 77% | 1009.4 hPa | 0 mm | 0.89 m/s, 200° | - | - |
| 1778036314 | 27.22° C | 76% | 1009.4 hPa | 0 mm | 0 m/s | - | - |
| 1778035714 | 27.22° C | 76% | 1009.4 hPa | 0 mm | 0.45 m/s, 153° | - | - |
| 1778035114 | 27.22° C | 76% | 1009.3 hPa | 0 mm | 0 m/s | - | - |
| 1778034514 | 27.22° C | 76% | 1009 hPa | 0 mm | 0.89 m/s, 98° | - | - |
| 1778033913 | 27.22° C | 75% | 1008.9 hPa | 0 mm | 0 m/s | - | - |
| 1778033314 | 27.78° C | 75% | 1008.7 hPa | 0 mm | 0.45 m/s, 153° | - | - |
| 1778032713 | 27.78° C | 75% | 1008.6 hPa | 0 mm | 0.45 m/s, 120° | - | - |
| 1778032113 | 27.78° C | 74% | 1008.5 hPa | 0 mm | 0.45 m/s, 146° | - | - |
| 1778031513 | 27.78° C | 74% | 1008.2 hPa | 0 mm | 0 m/s | - | - |
| 1778030913 | 27.78° C | 74% | 1008 hPa | 0 mm | 0.45 m/s, 158° | - | - |
| 1778030313 | 27.78° C | 73% | 1008 hPa | 0 mm | 1.79 m/s, 134° | - | - |
| 1778029713 | 27.78° C | 73% | 1007.8 hPa | 0 mm | 0.89 m/s, 177° | - | - |
* Rain latest hour (hover to see other rain measurements)
** Current wind speed in m/s (hover to see current wind gust speed)